Date String (YYYY-MM-DD hh:mm:ss) UTC,Instrument flags,absolute air pressure of the measurement (hPa),sample flow rate (lpm),inlet stack bypass flow (lpm),air temperature of the measurement (°C),ambient temperature measured by the external sensor (°C),aerosol sample conditioner tube jacket temperature (°C),OPC LED temperature (°C),internal box temperature (°C),relative humidity of the measurement (%),span deviation,mass concentration of particles derived from Lorenz-Mie calculation of OPC scattering (μg/m³),mass concentration of particles derived from Lorenz-Mie calculation of OPC scattering (μg/m³),mass concentration of particles derived from Lorenz-Mie calculation of OPC scattering (μg/m³)
DateTimeUTC,F1_M11,P_M11,Q1_M11,Q2_M11,T1_M11,T2_M11,T3_M11,T4_M11,T5_M11,U1_M11,ZSPAN_M11,X0_M11,X2_M11,X1_M11
2023-09-11 09:00:00,SystemResetWarning,0836.7,5.01,000.00,029.0,027.6,000.0,037.3,030.5,32.3,-000.9,0008.18,0005.17,0004.86
2023-09-11 09:01:00,SystemResetWarning,0836.7,5.01,000.00,029.0,027.6,000.0,037.3,030.5,32.3,-000.7,0008.18,0005.17,0004.87
2023-09-11 09:02:00,SystemResetWarning,0836.7,4.99,000.00,029.0,027.6,000.0,037.3,030.6,32.3,-000.3,0008.19,0005.20,0004.90
2023-09-11 09:03:00,SystemResetWarning,0836.7,4.99,000.00,029.0,027.6,000.0,037.3,030.5,32.3,-000.4,0008.21,0005.21,0004.90
2023-09-11 09:04:00,SystemResetWarning,0836.7,5.00,000.00,029.0,027.6,000.0,037.3,030.5,32.4,-000.3,0008.21,0005.20,0004.90
2023-09-11 09:05:00,SystemResetWarning,0836.7,5.02,000.00,029.0,027.5,000.0,037.3,030.5,32.4,-000.6,0008.23,0005.20,0004.90
2023-09-11 09:06:00,SystemResetWarning,0836.6,5.01,000.00,029.0,027.5,000.0,037.4,030.5,32.4,-000.6,0008.17,0005.16,0004.87
2023-09-11 09:07:00,SystemResetWarning,0836.6,4.99,000.00,029.0,027.5,000.0,037.3,030.5,32.4,-000.5,0008.16,0005.15,0004.87
2023-09-11 09:08:00,SystemResetWarning,0836.5,4.99,000.00,029.0,027.5,000.0,037.4,030.5,32.4,-000.2,0008.08,0005.11,0004.84
2023-09-11 09:09:00,SystemResetWarning,0836.5,5.00,000.00,029.0,027.5,000.0,037.4,030.5,32.5,-000.1,0008.16,0005.12,0004.83
2023-09-11 09:10:00,SystemResetWarning,0836.5,5.01,000.00,029.0,027.5,000.0,037.4,030.5,32.5,-000.1,0008.12,0005.09,0004.81
2023-09-11 09:11:00,SystemResetWarning,0836.4,4.99,000.00,029.0,027.5,000.0,037.3,030.5,32.5,-000.0,0008.07,0005.09,0004.79
2023-09-11 09:12:00,SystemResetWarning,0836.4,4.99,000.00,029.0,027.5,000.0,037.3,030.5,32.4,0000.0,0008.08,0005.10,0004.77
2023-09-11 09:13:00,SystemResetWarning,0836.4,5.00,000.00,029.0,027.6,000.0,037.3,030.5,32.5,-000.2,0008.03,0005.07,0004.76
2023-09-11 09:14:00,SystemResetWarning,0836.3,5.00,000.00,029.0,027.6,000.0,037.4,030.5,32.4,-000.4,0007.98,0005.04,0004.74
2023-09-11 09:15:00,SystemResetWarning,0836.3,5.00,000.00,029.0,027.6,000.0,037.4,030.5,32.3,-000.5,0007.90,0005.01,0004.73
2023-09-11 09:16:00,SystemResetWarning,0836.3,5.01,000.00,029.0,027.6,000.0,037.4,030.5,32.3,0000.2,0007.89,0005.02,0004.74
2023-09-11 09:17:00,SystemResetWarning,0836.3,5.01,000.00,029.0,027.6,000.0,037.4,030.5,32.3,0000.2,0007.99,0005.05,0004.75
2023-09-11 09:18:00,SystemResetWarning,0836.3,5.00,000.00,029.0,027.6,000.0,037.4,030.5,32.3,0000.0,0007.98,0005.05,0004.75
2023-09-11 09:19:00,SystemResetWarning,0836.3,4.99,000.00,029.0,027.6,000.0,037.4,030.5,32.2,0000.0,0007.99,0005.05,0004.75
2023-09-11 09:20:00,SystemResetWarning,0836.3,4.99,000.00,029.0,027.6,000.0,037.4,030.5,32.1,0000.1,0007.88,0005.01,0004.73
2023-09-11 09:21:00,SystemResetWarning,0836.3,5.00,000.00,029.0,027.6,000.0,037.4,030.5,32.0,-000.0,0007.84,0005.00,0004.72
2023-09-11 09:22:00,SystemResetWarning,0836.2,4.99,000.00,029.0,027.6,000.0,037.4,030.5,31.9,-000.1,0008.26,0005.01,0004.73
2023-09-11 09:23:00,SystemResetWarning,0836.2,5.00,000.00,028.9,027.6,000.0,037.4,030.5,31.9,-000.3,0008.19,0004.97,0004.72
2023-09-11 09:24:00,SystemResetWarning,0836.3,5.00,000.00,028.9,027.5,000.0,037.4,030.5,31.9,-000.2,0008.44,0005.00,0004.71
2023-09-11 09:25:00,SystemResetWarning,0836.2,5.01,000.00,028.9,027.5,000.0,037.4,030.4,31.9,-000.2,0008.50,0005.00,0004.70
2023-09-11 09:26:00,SystemResetWarning,0836.2,5.00,000.00,028.9,027.5,000.0,037.4,030.4,31.9,-000.1,0008.56,0005.03,0004.70
2023-09-11 09:27:00,SystemResetWarning,0836.2,5.01,000.00,028.9,027.5,000.0,037.4,030.4,31.9,-000.1,0008.60,0005.03,0004.67
2023-09-11 09:28:00,SystemResetWarning,0836.1,4.99,000.00,028.9,027.5,000.0,037.4,030.4,31.8,-000.3,0008.53,0005.01,0004.64
2023-09-11 09:29:00,SystemResetWarning,0836.1,4.99,000.00,028.9,027.5,000.0,037.4,030.4,31.8,-000.6,0008.52,0004.99,0004.62
2023-09-11 09:30:00,SystemResetWarning,0836.1,4.99,000.00,028.9,027.5,000.0,037.4,030.4,31.8,-000.8,0008.58,0004.99,0004.60
2023-09-11 09:31:00,SystemResetWarning,0836.1,5.02,000.00,028.9,027.5,000.0,037.4,030.4,31.8,-001.4,0008.73,0005.03,0004.60
2023-09-11 09:32:00,SystemResetWarning,0836.1,5.00,000.00,028.9,027.5,000.0,037.3,030.4,31.8,-001.6,0008.82,0005.06,0004.59
2023-09-11 09:33:00,SystemResetWarning,0836.1,4.99,000.00,028.9,027.5,000.0,037.3,030.4,31.8,-001.5,0008.49,0005.03,0004.57
2023-09-11 09:34:00,SystemResetWarning,0836.1,4.99,000.00,028.9,027.5,000.0,037.3,030.4,31.8,-001.3,0008.29,0004.99,0004.55
2023-09-11 09:35:00,SystemResetWarning,0836.1,4.99,000.00,028.9,027.5,000.0,037.3,030.4,31.8,-001.5,0008.13,0004.96,0004.52
2023-09-11 09:36:00,SystemResetWarning,0836.1,5.00,000.00,028.9,027.5,000.0,037.3,030.4,31.8,-002.1,0007.97,0004.92,0004.50
2023-09-11 09:37:00,SystemResetWarning,0836.1,5.01,000.00,028.9,027.5,000.0,037.3,030.4,31.8,-002.3,0007.92,0004.89,0004.48
2023-09-11 09:38:00,SystemResetWarning,0836.1,5.01,000.00,028.9,027.5,000.0,037.3,030.4,31.9,-002.8,0007.85,0004.84,0004.45
2023-09-11 09:39:00,SystemResetWarning,0836.0,5.00,000.00,028.9,027.5,000.0,037.3,030.4,31.8,-003.0,0007.78,0004.79,0004.43
2023-09-11 09:40:00,SystemResetWarning,0836.0,4.99,000.00,028.9,027.5,000.0,037.3,030.4,31.8,-002.7,0007.77,0004.76,0004.39
2023-09-11 09:41:00,SystemResetWarning,0836.0,4.99,000.00,028.9,027.5,000.0,037.3,030.4,31.7,-002.6,0007.68,0004.73,0004.36
2023-09-11 09:42:00,SystemResetWarning,0836.0,5.00,000.00,028.9,027.5,000.0,037.3,030.4,31.7,-001.9,0007.53,0004.67,0004.33
2023-09-11 09:43:00,SystemResetWarning,0836.0,5.01,000.00,028.9,027.5,000.0,037.3,030.4,31.7,-001.2,0007.36,0004.57,0004.28
2023-09-11 09:44:00,SystemResetWarning,0836.1,5.01,000.00,028.9,027.5,000.0,037.3,030.4,31.6,-001.2,0007.34,0004.55,0004.25
2023-09-11 09:45:00,SystemResetWarning,0836.1,5.01,000.00,028.9,027.5,000.0,037.3,030.4,31.6,-001.6,0007.29,0004.52,0004.22
2023-09-11 09:46:00,SystemResetWarning,0836.1,5.00,000.00,028.9,027.5,000.0,037.3,030.4,31.5,-001.5,0007.25,0004.51,0004.19
2023-09-11 09:47:00,SystemResetWarning,0836.1,5.00,000.00,028.9,027.5,000.0,037.3,030.4,31.4,-001.3,0007.15,0004.48,0004.17
2023-09-11 09:48:00,SystemResetWarning,0836.1,5.00,000.00,028.9,027.5,000.0,037.3,030.5,31.3,-001.2,0007.07,0004.45,0004.13
2023-09-11 09:49:00,SystemResetWarning,0836.1,5.00,000.00,028.9,027.6,000.0,037.3,030.5,31.3,-001.1,0007.06,0004.43,0004.11
2023-09-11 09:50:00,SystemResetWarning,0836.1,5.01,000.00,029.0,027.6,000.0,037.3,030.5,31.3,-001.0,0007.05,0004.42,0004.09
2023-09-11 09:51:00,SystemResetWarning,0836.1,5.00,000.00,029.0,027.6,000.0,037.3,030.5,31.3,-001.0,0006.95,0004.40,0004.08
2023-09-11 09:52:00,SystemResetWarning,0836.1,5.00,000.00,028.9,027.6,000.0,037.3,030.4,31.2,-000.8,0006.91,0004.37,0004.06
2023-09-11 09:53:00,SystemResetWarning,0836.1,5.00,000.00,029.0,027.6,000.0,037.3,030.5,31.1,-001.2,0006.94,0004.37,0004.04
2023-09-11 09:54:00,SystemResetWarning,0836.1,5.00,000.00,029.0,027.6,000.0,037.3,030.5,31.1,-002.0,0006.98,0004.37,0004.04
2023-09-11 09:55:00,SystemResetWarning,0836.1,4.99,000.00,029.0,027.6,000.0,037.3,030.5,31.2,-002.0,0007.09,0004.37,0004.02
2023-09-11 09:56:00,SystemResetWarning,0836.1,4.99,000.00,029.0,027.6,000.0,037.3,030.5,31.1,-001.8,0007.06,0004.35,0004.01
2023-09-11 09:57:00,SystemResetWarning,0836.1,5.00,000.00,029.0,027.6,000.0,037.4,030.5,31.1,-001.4,0006.89,0004.30,0003.99
2023-09-11 09:58:00,SystemResetWarning,0836.1,5.00,000.00,029.0,027.6,000.0,037.4,030.6,31.0,-001.0,0006.77,0004.26,0003.98
2023-09-11 09:59:00,SystemResetWarning,0836.1,5.00,000.00,029.0,027.6,000.0,037.4,030.6,31.0,-000.8,0006.65,0004.22,0003.96
